Year,Month,Day,Hour,Minute,Value (Times are PST for temperature in C)
2006,10,12,00,00,8.70
2006,10,12,00,01,8.70
2006,10,12,00,02,8.70
2006,10,12,00,03,8.70
2006,10,12,00,04,8.70
2006,10,12,00,05,8.70
2006,10,12,00,06,8.70
2006,10,12,00,07,8.70
2006,10,12,00,08,8.70
2006,10,12,00,09,8.70
2006,10,12,00,10,8.70
2006,10,12,00,11,8.70
2006,10,12,00,12,8.70
2006,10,12,00,13,8.70
2006,10,12,00,14,8.70
2006,10,12,00,15,8.70
2006,10,12,00,16,8.80
2006,10,12,00,17,8.80
2006,10,12,00,18,8.90
2006,10,12,00,19,8.90
2006,10,12,00,20,8.90
2006,10,12,00,21,9.00
2006,10,12,00,22,9.00
2006,10,12,00,23,9.10
2006,10,12,00,24,9.10
2006,10,12,00,25,9.10
2006,10,12,00,26,9.20
2006,10,12,00,27,9.20
2006,10,12,00,28,9.20
2006,10,12,00,29,9.20
2006,10,12,00,30,9.20
2006,10,12,00,31,9.30
2006,10,12,00,32,9.30
2006,10,12,00,33,9.40
2006,10,12,00,34,9.40
2006,10,12,00,35,9.40
2006,10,12,00,36,9.50
2006,10,12,00,37,9.50
2006,10,12,00,38,9.50
2006,10,12,00,39,9.60
2006,10,12,00,40,9.60
2006,10,12,00,41,9.60
2006,10,12,00,42,9.60
2006,10,12,00,43,9.60
2006,10,12,00,44,9.60
2006,10,12,00,45,9.60
2006,10,12,00,46,9.60
2006,10,12,00,47,9.60
2006,10,12,00,48,9.60
2006,10,12,00,49,9.50
2006,10,12,00,50,9.50
2006,10,12,00,51,9.50
2006,10,12,00,52,9.50
2006,10,12,00,53,9.40
2006,10,12,00,54,9.40
2006,10,12,00,55,9.40
2006,10,12,00,56,9.40
2006,10,12,00,57,9.30
2006,10,12,00,58,9.30
2006,10,12,00,59,9.30
2006,10,12,01,00,9.30
2006,10,12,01,01,9.30
2006,10,12,01,02,9.30
2006,10,12,01,03,9.20
2006,10,12,01,04,9.20
2006,10,12,01,05,9.20
2006,10,12,01,06,9.20
2006,10,12,01,07,9.20
2006,10,12,01,08,9.20
2006,10,12,01,09,9.20
2006,10,12,01,10,9.20
2006,10,12,01,11,9.20
2006,10,12,01,12,9.20
2006,10,12,01,13,9.20
2006,10,12,01,14,9.20
2006,10,12,01,15,9.20
2006,10,12,01,16,9.20
2006,10,12,01,17,9.20
2006,10,12,01,18,9.20
2006,10,12,01,19,9.20
2006,10,12,01,20,9.20
2006,10,12,01,21,9.20
2006,10,12,01,22,9.20
2006,10,12,01,23,9.20
2006,10,12,01,24,9.20
2006,10,12,01,25,9.20
2006,10,12,01,26,9.20
2006,10,12,01,27,9.20
2006,10,12,01,28,9.30
2006,10,12,01,29,9.30
2006,10,12,01,30,9.30
2006,10,12,01,31,9.30
2006,10,12,01,32,9.30
2006,10,12,01,33,9.40
2006,10,12,01,34,9.40
2006,10,12,01,35,9.40
2006,10,12,01,36,9.40
2006,10,12,01,37,9.40
2006,10,12,01,38,9.40
2006,10,12,01,39,9.40
2006,10,12,01,40,9.40
2006,10,12,01,41,9.40
2006,10,12,01,42,9.40
2006,10,12,01,43,9.40
2006,10,12,01,44,9.40
2006,10,12,01,45,9.40
2006,10,12,01,46,9.40
2006,10,12,01,47,9.40
2006,10,12,01,48,9.40
2006,10,12,01,49,9.40
2006,10,12,01,50,9.50
2006,10,12,01,51,9.50
2006,10,12,01,52,9.50
2006,10,12,01,53,9.50
2006,10,12,01,54,9.50
2006,10,12,01,55,9.40
2006,10,12,01,56,9.40
2006,10,12,01,57,9.40
2006,10,12,01,58,9.40
2006,10,12,01,59,9.40
2006,10,12,02,00,9.40
2006,10,12,02,01,9.40
2006,10,12,02,02,9.50
2006,10,12,02,03,9.50
2006,10,12,02,04,9.50
2006,10,12,02,05,9.50
2006,10,12,02,06,9.50
2006,10,12,02,07,9.50
2006,10,12,02,08,9.50
2006,10,12,02,09,9.50
2006,10,12,02,10,9.50
2006,10,12,02,11,9.40
2006,10,12,02,12,9.40
2006,10,12,02,13,9.40
2006,10,12,02,14,9.40
2006,10,12,02,15,9.40
2006,10,12,02,16,9.40
2006,10,12,02,17,9.50
2006,10,12,02,18,9.50
2006,10,12,02,19,9.50
2006,10,12,02,20,9.50
2006,10,12,02,21,9.60
2006,10,12,02,22,9.60
2006,10,12,02,23,9.60
2006,10,12,02,24,9.70
2006,10,12,02,25,9.70
2006,10,12,02,26,9.70
2006,10,12,02,27,9.70
2006,10,12,02,28,9.70
2006,10,12,02,29,9.70
2006,10,12,02,30,9.70
2006,10,12,02,31,9.70
2006,10,12,02,32,9.70
2006,10,12,02,33,9.70
2006,10,12,02,34,9.70
2006,10,12,02,35,9.70
2006,10,12,02,36,9.70
2006,10,12,02,37,9.70
2006,10,12,02,38,9.70
2006,10,12,02,39,9.60
2006,10,12,02,40,9.60
2006,10,12,02,41,9.60
2006,10,12,02,42,9.60
2006,10,12,02,43,9.60
2006,10,12,02,44,9.60
2006,10,12,02,45,9.60
2006,10,12,02,46,9.60
2006,10,12,02,47,9.60
2006,10,12,02,48,9.60
2006,10,12,02,49,9.60
2006,10,12,02,50,9.50
2006,10,12,02,51,9.50
2006,10,12,02,52,9.50
2006,10,12,02,53,9.50
2006,10,12,02,54,9.50
2006,10,12,02,55,9.50
2006,10,12,02,56,9.50
2006,10,12,02,57,9.50
2006,10,12,02,58,9.50
2006,10,12,02,59,9.50
2006,10,12,03,00,9.50
2006,10,12,03,01,9.50
2006,10,12,03,02,9.50
2006,10,12,03,03,9.50
2006,10,12,03,04,9.50
2006,10,12,03,05,9.50
2006,10,12,03,06,9.50
2006,10,12,03,07,9.50
2006,10,12,03,08,9.40
2006,10,12,03,09,9.40
2006,10,12,03,10,9.40
2006,10,12,03,11,9.40
2006,10,12,03,12,9.40
2006,10,12,03,13,9.30
2006,10,12,03,14,9.30
2006,10,12,03,15,9.30
2006,10,12,03,16,9.30
2006,10,12,03,17,9.30
2006,10,12,03,18,9.30
2006,10,12,03,19,9.30
2006,10,12,03,20,9.30
2006,10,12,03,21,9.30
2006,10,12,03,22,9.30
2006,10,12,03,23,9.30
2006,10,12,03,24,9.30
2006,10,12,03,25,9.30
2006,10,12,03,26,9.30
2006,10,12,03,27,9.30
2006,10,12,03,28,9.30
2006,10,12,03,29,9.30
2006,10,12,03,30,9.30
2006,10,12,03,31,9.30
2006,10,12,03,32,9.30
2006,10,12,03,33,9.30
2006,10,12,03,34,9.20
2006,10,12,03,35,9.20
2006,10,12,03,36,9.20
2006,10,12,03,37,9.20
2006,10,12,03,38,9.20
2006,10,12,03,39,9.20
2006,10,12,03,40,9.20
2006,10,12,03,41,9.20
2006,10,12,03,42,9.20
2006,10,12,03,43,9.20
2006,10,12,03,44,9.20
2006,10,12,03,45,9.20
2006,10,12,03,46,9.20
2006,10,12,03,47,9.20
2006,10,12,03,48,9.20
2006,10,12,03,49,9.20
2006,10,12,03,50,9.20
2006,10,12,03,51,9.10
2006,10,12,03,52,9.10
2006,10,12,03,53,9.10
2006,10,12,03,54,9.00
2006,10,12,03,55,9.00
2006,10,12,03,56,9.00
2006,10,12,03,57,8.90
2006,10,12,03,58,8.90
2006,10,12,03,59,8.90
2006,10,12,04,00,8.90
2006,10,12,04,01,8.90
2006,10,12,04,02,8.90
2006,10,12,04,03,8.90
2006,10,12,04,04,8.90
2006,10,12,04,05,8.90
2006,10,12,04,06,8.90
2006,10,12,04,07,8.90
2006,10,12,04,08,8.90
2006,10,12,04,09,8.90
2006,10,12,04,10,8.90
2006,10,12,04,11,8.90
2006,10,12,04,12,8.90
2006,10,12,04,13,8.90
2006,10,12,04,14,8.90
2006,10,12,04,15,9.00
2006,10,12,04,16,9.00
2006,10,12,04,17,9.00
2006,10,12,04,18,9.00
2006,10,12,04,19,9.10
2006,10,12,04,20,9.10
2006,10,12,04,21,9.10
2006,10,12,04,22,9.10
2006,10,12,04,23,9.00
2006,10,12,04,24,9.00
2006,10,12,04,25,9.00
2006,10,12,04,26,9.00
2006,10,12,04,27,9.00
2006,10,12,04,28,8.90
2006,10,12,04,29,8.90
2006,10,12,04,30,8.90
2006,10,12,04,31,8.90
2006,10,12,04,32,8.90
2006,10,12,04,33,8.90
2006,10,12,04,34,8.90
2006,10,12,04,35,8.90
2006,10,12,04,36,8.90
2006,10,12,04,37,8.90
2006,10,12,04,38,8.90
2006,10,12,04,39,8.90
2006,10,12,04,40,8.90
2006,10,12,04,41,8.90
2006,10,12,04,42,8.90
2006,10,12,04,43,8.90
2006,10,12,04,44,8.90
2006,10,12,04,45,9.00
2006,10,12,04,46,9.00
2006,10,12,04,47,9.00
2006,10,12,04,48,9.00
2006,10,12,04,49,9.00
2006,10,12,04,50,9.00
2006,10,12,04,51,8.90
2006,10,12,04,52,8.90
2006,10,12,04,53,8.90
2006,10,12,04,54,8.90
2006,10,12,04,55,8.90
2006,10,12,04,56,8.80
2006,10,12,04,57,8.80
2006,10,12,04,58,8.80
2006,10,12,04,59,8.70
2006,10,12,05,00,8.70
2006,10,12,05,01,8.70
2006,10,12,05,02,8.70
2006,10,12,05,03,8.70
2006,10,12,05,04,8.70
2006,10,12,05,05,8.70
2006,10,12,05,06,8.70
2006,10,12,05,07,8.70
2006,10,12,05,08,8.70
2006,10,12,05,09,8.70
2006,10,12,05,10,8.70
2006,10,12,05,11,8.70
2006,10,12,05,12,8.60
2006,10,12,05,13,8.60
2006,10,12,05,14,8.60
2006,10,12,05,15,8.60
2006,10,12,05,16,8.60
2006,10,12,05,17,8.60
2006,10,12,05,18,8.60
2006,10,12,05,19,8.60
2006,10,12,05,20,8.60
2006,10,12,05,21,8.60
2006,10,12,05,22,8.70
2006,10,12,05,23,8.70
2006,10,12,05,24,8.70
2006,10,12,05,25,8.70
2006,10,12,05,26,8.70
2006,10,12,05,27,8.70
2006,10,12,05,28,8.70
2006,10,12,05,29,8.70
2006,10,12,05,30,8.70
2006,10,12,05,31,8.70
2006,10,12,05,32,8.70
2006,10,12,05,33,8.80
2006,10,12,05,34,8.80
2006,10,12,05,35,8.80
2006,10,12,05,36,8.80
2006,10,12,05,37,8.80
2006,10,12,05,38,8.80
2006,10,12,05,39,8.80
2006,10,12,05,40,8.80
2006,10,12,05,41,8.80
2006,10,12,05,42,8.80
2006,10,12,05,43,8.70
2006,10,12,05,44,8.70
2006,10,12,05,45,8.70
2006,10,12,05,46,8.70
2006,10,12,05,47,8.70
2006,10,12,05,48,8.70
2006,10,12,05,49,8.70
2006,10,12,05,50,8.70
2006,10,12,05,51,8.70
2006,10,12,05,52,8.80
2006,10,12,05,53,8.80
2006,10,12,05,54,8.80
2006,10,12,05,55,8.80
2006,10,12,05,56,8.90
2006,10,12,05,57,8.90
2006,10,12,05,58,8.90
2006,10,12,05,59,8.80
2006,10,12,06,00,8.80
2006,10,12,06,01,8.80
2006,10,12,06,02,8.80
2006,10,12,06,03,8.80
2006,10,12,06,04,8.80
2006,10,12,06,05,8.80
2006,10,12,06,06,8.80
2006,10,12,06,07,8.80
2006,10,12,06,08,8.80
2006,10,12,06,09,8.80
2006,10,12,06,10,8.70
2006,10,12,06,11,8.70
2006,10,12,06,12,8.70
2006,10,12,06,13,8.70
2006,10,12,06,14,8.70
2006,10,12,06,15,8.70
2006,10,12,06,16,8.70
2006,10,12,06,17,8.70
2006,10,12,06,18,8.70
2006,10,12,06,19,8.60
2006,10,12,06,20,8.60
2006,10,12,06,21,8.60
2006,10,12,06,22,8.60
2006,10,12,06,23,8.60
2006,10,12,06,24,8.60
2006,10,12,06,25,8.50
2006,10,12,06,26,8.50
2006,10,12,06,27,8.50
2006,10,12,06,28,8.50
2006,10,12,06,29,8.50
2006,10,12,06,30,8.50
2006,10,12,06,31,8.40
2006,10,12,06,32,8.40
2006,10,12,06,33,8.40
2006,10,12,06,34,8.40
2006,10,12,06,35,8.40
2006,10,12,06,36,8.40
2006,10,12,06,37,8.40
2006,10,12,06,38,8.40
2006,10,12,06,39,8.40
2006,10,12,06,40,8.40
2006,10,12,06,41,8.40
2006,10,12,06,42,8.50
2006,10,12,06,43,8.50
2006,10,12,06,44,8.60
2006,10,12,06,45,8.60
2006,10,12,06,46,8.60
2006,10,12,06,47,8.60
2006,10,12,06,48,8.60
2006,10,12,06,49,8.70
2006,10,12,06,50,8.70
2006,10,12,06,51,8.70
2006,10,12,06,52,8.70
2006,10,12,06,53,8.70
2006,10,12,06,54,8.70
2006,10,12,06,55,8.70
2006,10,12,06,56,8.70
2006,10,12,06,57,8.60
2006,10,12,06,58,8.60
2006,10,12,06,59,8.50
2006,10,12,07,00,8.50
2006,10,12,07,01,8.50
2006,10,12,07,02,8.40
2006,10,12,07,03,8.50
2006,10,12,07,04,8.50
2006,10,12,07,05,8.50
2006,10,12,07,06,8.60
2006,10,12,07,07,8.60
2006,10,12,07,08,8.70
2006,10,12,07,09,8.70
2006,10,12,07,10,8.70
2006,10,12,07,11,8.70
2006,10,12,07,12,8.70
2006,10,12,07,13,8.80
2006,10,12,07,14,8.80
2006,10,12,07,15,8.80
2006,10,12,07,16,8.80
2006,10,12,07,17,8.80
2006,10,12,07,18,8.80
2006,10,12,07,19,8.70
2006,10,12,07,20,8.70
2006,10,12,07,21,8.70
2006,10,12,07,22,8.60
2006,10,12,07,23,8.60
2006,10,12,07,24,8.50
2006,10,12,07,25,8.50
2006,10,12,07,26,8.40
2006,10,12,07,27,8.40
2006,10,12,07,28,8.30
2006,10,12,07,29,8.30
2006,10,12,07,30,8.20
2006,10,12,07,31,8.10
2006,10,12,07,32,8.10
2006,10,12,07,33,8.00
2006,10,12,07,34,7.90
2006,10,12,07,35,7.90
2006,10,12,07,36,7.80
2006,10,12,07,37,7.80
2006,10,12,07,38,7.80
2006,10,12,07,39,7.80
2006,10,12,07,40,7.80
2006,10,12,07,41,7.80
2006,10,12,07,42,7.70
2006,10,12,07,43,7.70
2006,10,12,07,44,7.70
2006,10,12,07,45,7.70
2006,10,12,07,46,7.70
2006,10,12,07,47,7.70
2006,10,12,07,48,7.70
2006,10,12,07,49,7.70
2006,10,12,07,50,7.60
2006,10,12,07,51,7.60
2006,10,12,07,52,7.60
2006,10,12,07,53,7.60
2006,10,12,07,54,7.60
2006,10,12,07,55,7.60
2006,10,12,07,56,7.60
2006,10,12,07,57,7.50
2006,10,12,07,58,7.50
2006,10,12,07,59,7.50
2006,10,12,08,00,7.60
2006,10,12,08,01,7.60
2006,10,12,08,02,7.60
2006,10,12,08,03,7.60
2006,10,12,08,04,7.60
2006,10,12,08,05,7.60
2006,10,12,08,06,7.60
2006,10,12,08,07,7.60
2006,10,12,08,08,7.60
2006,10,12,08,09,7.60
2006,10,12,08,10,7.60
2006,10,12,08,11,7.70
2006,10,12,08,12,7.70
2006,10,12,08,13,7.70
2006,10,12,08,14,7.80
2006,10,12,08,15,7.80
2006,10,12,08,16,7.80
2006,10,12,08,17,7.80
2006,10,12,08,18,7.80
2006,10,12,08,19,7.90
2006,10,12,08,20,7.90
2006,10,12,08,21,7.90
2006,10,12,08,22,7.90
2006,10,12,08,23,8.10
2006,10,12,08,24,8.10
2006,10,12,08,25,8.20
2006,10,12,08,26,8.20
2006,10,12,08,27,8.20
2006,10,12,08,28,8.30
2006,10,12,08,29,8.40
2006,10,12,08,30,8.40
2006,10,12,08,31,8.50
2006,10,12,08,32,8.60
2006,10,12,08,33,8.70
2006,10,12,08,34,8.70
2006,10,12,08,35,8.70
2006,10,12,08,36,8.80
2006,10,12,08,37,9.00
2006,10,12,08,38,9.20
2006,10,12,08,39,9.30
2006,10,12,08,40,9.40
2006,10,12,08,41,9.50
2006,10,12,08,42,9.60
2006,10,12,08,43,9.80
2006,10,12,08,44,9.90
2006,10,12,08,45,10.00
2006,10,12,08,46,10.10
2006,10,12,08,47,10.20
2006,10,12,08,48,10.30
2006,10,12,08,49,10.40
2006,10,12,08,50,10.40
2006,10,12,08,51,10.50
2006,10,12,08,52,10.60
2006,10,12,08,53,10.70
2006,10,12,08,54,10.80
2006,10,12,08,55,10.90
2006,10,12,08,56,10.90
2006,10,12,08,57,11.00
2006,10,12,08,58,11.10
2006,10,12,08,59,11.10
2006,10,12,09,00,11.20
2006,10,12,09,01,11.20
2006,10,12,09,02,11.20
2006,10,12,09,03,11.20
2006,10,12,09,04,11.30
2006,10,12,09,05,11.30
2006,10,12,09,06,11.30
2006,10,12,09,07,11.40
2006,10,12,09,08,11.40
2006,10,12,09,09,11.40
2006,10,12,09,10,11.50
2006,10,12,09,11,11.60
2006,10,12,09,12,11.60
2006,10,12,09,13,11.70
2006,10,12,09,14,11.70
2006,10,12,09,15,11.80
2006,10,12,09,16,11.80
2006,10,12,09,17,11.90
2006,10,12,09,18,12.00
2006,10,12,09,19,12.00
2006,10,12,09,20,12.10
2006,10,12,09,21,12.10
2006,10,12,09,22,12.20
2006,10,12,09,23,12.20
2006,10,12,09,24,12.30
2006,10,12,09,25,12.30
2006,10,12,09,26,12.30
2006,10,12,09,27,12.30
2006,10,12,09,28,12.30
2006,10,12,09,29,12.40
2006,10,12,09,30,12.40
2006,10,12,09,31,12.50
2006,10,12,09,32,12.50
2006,10,12,09,33,12.50
2006,10,12,09,34,12.60
2006,10,12,09,35,12.60
2006,10,12,09,36,12.70
2006,10,12,09,37,12.80
2006,10,12,09,38,12.80
2006,10,12,09,39,12.80
2006,10,12,09,40,12.80
2006,10,12,09,41,12.90
2006,10,12,09,42,12.90
2006,10,12,09,43,13.00
2006,10,12,09,44,13.00
2006,10,12,09,45,13.10
2006,10,12,09,46,13.10
2006,10,12,09,47,13.20
2006,10,12,09,48,13.20
2006,10,12,09,49,13.30
2006,10,12,09,50,13.30
2006,10,12,09,51,13.40
2006,10,12,09,52,13.50
2006,10,12,09,53,13.50
2006,10,12,09,54,13.60
2006,10,12,09,55,13.60
2006,10,12,09,56,13.70
2006,10,12,09,57,13.70
2006,10,12,09,58,13.70
2006,10,12,09,59,13.80
2006,10,12,10,00,13.80
2006,10,12,10,01,13.90
2006,10,12,10,02,13.90
2006,10,12,10,03,14.00
2006,10,12,10,04,14.10
2006,10,12,10,05,14.20
2006,10,12,10,06,14.20
2006,10,12,10,07,14.30
2006,10,12,10,08,14.40
2006,10,12,10,09,14.40
2006,10,12,10,10,14.50
2006,10,12,10,11,14.60
2006,10,12,10,12,14.60
2006,10,12,10,13,14.70
2006,10,12,10,14,14.80
2006,10,12,10,15,14.80
2006,10,12,10,16,14.90
2006,10,12,10,17,15.00
2006,10,12,10,18,15.00
2006,10,12,10,19,15.10
2006,10,12,10,20,15.10
2006,10,12,10,21,15.20
2006,10,12,10,22,15.20
2006,10,12,10,23,15.30
2006,10,12,10,24,15.30
2006,10,12,10,25,15.30
2006,10,12,10,26,15.30
2006,10,12,10,27,15.30
2006,10,12,10,28,15.30
2006,10,12,10,29,15.30
2006,10,12,10,30,15.30
2006,10,12,10,31,15.30
2006,10,12,10,32,15.30
2006,10,12,10,33,15.30
2006,10,12,10,34,15.30
2006,10,12,10,35,15.30
2006,10,12,10,36,15.30
2006,10,12,10,37,15.20
2006,10,12,10,38,15.20
2006,10,12,10,39,15.20
2006,10,12,10,40,15.10
2006,10,12,10,41,15.10
2006,10,12,10,42,15.10
2006,10,12,10,43,15.10
2006,10,12,10,44,15.10
2006,10,12,10,45,15.00
2006,10,12,10,46,15.00
2006,10,12,10,47,14.90
2006,10,12,10,48,14.90
2006,10,12,10,49,14.80
2006,10,12,10,50,14.80
2006,10,12,10,51,14.80
2006,10,12,10,52,14.80
2006,10,12,10,53,14.80
2006,10,12,10,54,14.80
2006,10,12,10,55,14.90
2006,10,12,10,56,14.90
2006,10,12,10,57,15.00
2006,10,12,10,58,15.00
2006,10,12,10,59,15.10
2006,10,12,11,00,15.10
2006,10,12,11,01,15.10
2006,10,12,11,02,15.20
2006,10,12,11,03,15.20
2006,10,12,11,04,15.20
2006,10,12,11,05,15.20
2006,10,12,11,06,15.20
2006,10,12,11,07,15.20
2006,10,12,11,08,15.20
2006,10,12,11,09,15.20
2006,10,12,11,10,15.30
2006,10,12,11,11,15.30
2006,10,12,11,12,15.30
2006,10,12,11,13,15.30
2006,10,12,11,14,15.30
2006,10,12,11,15,15.40
2006,10,12,11,16,15.40
2006,10,12,11,17,15.40
2006,10,12,11,18,15.30
2006,10,12,11,19,15.30
2006,10,12,11,20,15.30
2006,10,12,11,21,15.30
2006,10,12,11,22,15.30
2006,10,12,11,23,15.30
2006,10,12,11,24,15.30
2006,10,12,11,25,15.30
2006,10,12,11,26,15.30
2006,10,12,11,27,15.30
2006,10,12,11,28,15.30
2006,10,12,11,29,15.30
2006,10,12,11,30,15.30
2006,10,12,11,31,15.30
2006,10,12,11,32,15.30
2006,10,12,11,33,15.30
2006,10,12,11,34,15.30
2006,10,12,11,35,15.30
2006,10,12,11,36,15.30
2006,10,12,11,37,15.30
2006,10,12,11,38,15.30
2006,10,12,11,39,15.30
2006,10,12,11,40,15.30
2006,10,12,11,41,15.30
2006,10,12,11,42,15.30
2006,10,12,11,43,15.30
2006,10,12,11,44,15.30
2006,10,12,11,45,15.30
2006,10,12,11,46,15.30
2006,10,12,11,47,15.30
2006,10,12,11,48,15.40
2006,10,12,11,49,15.40
2006,10,12,11,50,15.50
2006,10,12,11,51,15.50
2006,10,12,11,52,15.50
2006,10,12,11,53,15.50
2006,10,12,11,54,15.60
2006,10,12,11,55,15.60
2006,10,12,11,56,15.60
2006,10,12,11,57,15.70
2006,10,12,11,58,15.80
2006,10,12,11,59,15.80
2006,10,12,12,00,15.80
2006,10,12,12,01,15.80
2006,10,12,12,02,15.80
2006,10,12,12,03,15.80
2006,10,12,12,04,15.80
2006,10,12,12,05,15.80
2006,10,12,12,06,15.90
2006,10,12,12,07,15.90
2006,10,12,12,08,15.90
2006,10,12,12,09,15.90
2006,10,12,12,10,15.80
2006,10,12,12,11,15.80
2006,10,12,12,12,15.80
2006,10,12,12,13,15.80
2006,10,12,12,14,15.80
2006,10,12,12,15,15.80
2006,10,12,12,16,15.90
2006,10,12,12,17,16.00
2006,10,12,12,18,16.10
2006,10,12,12,19,16.10
2006,10,12,12,20,16.10
2006,10,12,12,21,16.10
2006,10,12,12,22,16.20
2006,10,12,12,23,16.20
2006,10,12,12,24,16.30
2006,10,12,12,25,16.30
2006,10,12,12,26,16.30
2006,10,12,12,27,16.30
2006,10,12,12,28,16.30
2006,10,12,12,29,16.30
2006,10,12,12,30,16.30
2006,10,12,12,31,16.30
2006,10,12,12,32,16.30
2006,10,12,12,33,16.30
2006,10,12,12,34,16.20
2006,10,12,12,35,16.20
2006,10,12,12,36,16.20
2006,10,12,12,37,16.20
2006,10,12,12,38,16.20
2006,10,12,12,39,16.30
2006,10,12,12,40,16.30
2006,10,12,12,41,16.30
2006,10,12,12,42,16.40
2006,10,12,12,43,16.40
2006,10,12,12,44,16.40
2006,10,12,12,45,16.40
2006,10,12,12,46,16.40
2006,10,12,12,47,16.50
2006,10,12,12,48,16.60
2006,10,12,12,49,16.60
2006,10,12,12,50,16.70
2006,10,12,12,51,16.70
2006,10,12,12,52,16.70
2006,10,12,12,53,16.70
2006,10,12,12,54,16.70
2006,10,12,12,55,16.70
2006,10,12,12,56,16.70
2006,10,12,12,57,16.70
2006,10,12,12,58,16.70
2006,10,12,12,59,16.70
2006,10,12,13,00,16.70
2006,10,12,13,01,16.80
2006,10,12,13,02,16.80
2006,10,12,13,03,16.80
2006,10,12,13,04,16.80
2006,10,12,13,05,16.80
2006,10,12,13,06,16.80
2006,10,12,13,07,16.80
2006,10,12,13,08,16.90
2006,10,12,13,09,16.90
2006,10,12,13,10,16.90
2006,10,12,13,11,17.00
2006,10,12,13,12,17.00
2006,10,12,13,13,17.00
2006,10,12,13,14,17.00
2006,10,12,13,15,17.10
2006,10,12,13,16,17.10
2006,10,12,13,17,17.10
2006,10,12,13,18,17.20
2006,10,12,13,19,17.20
2006,10,12,13,20,17.30
2006,10,12,13,21,17.30
2006,10,12,13,22,17.30
2006,10,12,13,23,17.30
2006,10,12,13,24,17.30
2006,10,12,13,25,17.30
2006,10,12,13,26,17.30
2006,10,12,13,27,17.30
2006,10,12,13,28,17.30
2006,10,12,13,29,17.30
2006,10,12,13,30,17.30
2006,10,12,13,31,17.30
2006,10,12,13,32,17.20
2006,10,12,13,33,17.20
2006,10,12,13,34,17.20
2006,10,12,13,35,17.30
2006,10,12,13,36,17.30
2006,10,12,13,37,17.30
2006,10,12,13,38,17.40
2006,10,12,13,39,17.40
2006,10,12,13,40,17.50
2006,10,12,13,41,17.50
2006,10,12,13,42,17.60
2006,10,12,13,43,17.70
2006,10,12,13,44,17.70
2006,10,12,13,45,17.80
2006,10,12,13,46,17.90
2006,10,12,13,47,17.90
2006,10,12,13,48,18.00
2006,10,12,13,49,18.10
2006,10,12,13,50,18.10
2006,10,12,13,51,18.10
2006,10,12,13,52,18.10
2006,10,12,13,53,18.10
2006,10,12,13,54,18.10
2006,10,12,13,55,18.20
2006,10,12,13,56,18.20
2006,10,12,13,57,18.20
2006,10,12,13,58,18.20
2006,10,12,13,59,18.20
2006,10,12,14,00,18.20
2006,10,12,14,01,18.30
2006,10,12,14,02,18.30
2006,10,12,14,03,18.30
2006,10,12,14,04,18.30
2006,10,12,14,05,18.30
2006,10,12,14,06,18.30
2006,10,12,14,07,18.30
2006,10,12,14,08,18.30
2006,10,12,14,09,18.30
2006,10,12,14,10,18.30
2006,10,12,14,11,18.30
2006,10,12,14,12,18.30
2006,10,12,14,13,18.30
2006,10,12,14,14,18.30
2006,10,12,14,15,18.30
2006,10,12,14,16,18.30
2006,10,12,14,17,18.20
2006,10,12,14,18,18.20
2006,10,12,14,19,18.20
2006,10,12,14,20,18.20
2006,10,12,14,21,18.10
2006,10,12,14,22,18.10
2006,10,12,14,23,18.10
2006,10,12,14,24,18.10
2006,10,12,14,25,18.20
2006,10,12,14,26,18.20
2006,10,12,14,27,18.20
2006,10,12,14,28,18.20
2006,10,12,14,29,18.30
2006,10,12,14,30,18.30
2006,10,12,14,31,18.40
2006,10,12,14,32,18.40
2006,10,12,14,33,18.50
2006,10,12,14,34,18.60
2006,10,12,14,35,18.60
2006,10,12,14,36,18.70
2006,10,12,14,37,18.70
2006,10,12,14,38,18.80
2006,10,12,14,39,18.80
2006,10,12,14,40,18.70
2006,10,12,14,41,18.70
2006,10,12,14,42,18.60
2006,10,12,14,43,18.60
2006,10,12,14,44,18.50
2006,10,12,14,45,18.50
2006,10,12,14,46,18.50
2006,10,12,14,47,18.50
2006,10,12,14,48,18.50
2006,10,12,14,49,18.50
2006,10,12,14,50,18.50
2006,10,12,14,51,18.60
2006,10,12,14,52,18.60
2006,10,12,14,53,18.60
2006,10,12,14,54,18.60
2006,10,12,14,55,18.60
2006,10,12,14,56,18.60
2006,10,12,14,57,18.60
2006,10,12,14,58,18.60
2006,10,12,14,59,18.70
2006,10,12,15,00,18.70
2006,10,12,15,01,18.70
2006,10,12,15,02,18.70
2006,10,12,15,03,18.70
2006,10,12,15,04,18.60
2006,10,12,15,05,18.60
2006,10,12,15,06,18.60
2006,10,12,15,07,18.60
2006,10,12,15,08,18.60
2006,10,12,15,09,18.60
2006,10,12,15,10,18.60
2006,10,12,15,11,18.60
2006,10,12,15,12,18.50
2006,10,12,15,13,18.50
2006,10,12,15,14,18.50
2006,10,12,15,15,18.50
2006,10,12,15,16,18.40
2006,10,12,15,17,18.40
2006,10,12,15,18,18.30
2006,10,12,15,19,18.30
2006,10,12,15,20,18.30
2006,10,12,15,21,18.30
2006,10,12,15,22,18.30
2006,10,12,15,23,18.30
2006,10,12,15,24,18.20
2006,10,12,15,25,18.20
2006,10,12,15,26,18.20
2006,10,12,15,27,18.20
2006,10,12,15,28,18.30
2006,10,12,15,29,18.30
2006,10,12,15,30,18.30
2006,10,12,15,31,18.30
2006,10,12,15,32,18.30
2006,10,12,15,33,18.30
2006,10,12,15,34,18.30
2006,10,12,15,35,18.40
2006,10,12,15,36,18.40
2006,10,12,15,37,18.40
2006,10,12,15,38,18.40
2006,10,12,15,39,18.40
2006,10,12,15,40,18.40
2006,10,12,15,41,18.50
2006,10,12,15,42,18.50
2006,10,12,15,43,18.50
2006,10,12,15,44,18.50
2006,10,12,15,45,18.50
2006,10,12,15,46,18.50
2006,10,12,15,47,18.50
2006,10,12,15,48,18.40
2006,10,12,15,49,18.40
2006,10,12,15,50,18.40
2006,10,12,15,51,18.30
2006,10,12,15,52,18.20
2006,10,12,15,53,18.20
2006,10,12,15,54,18.20
2006,10,12,15,55,18.20
2006,10,12,15,56,18.20
2006,10,12,15,57,18.20
2006,10,12,15,58,18.20
2006,10,12,15,59,18.20
2006,10,12,16,00,18.20
2006,10,12,16,01,18.30
2006,10,12,16,02,18.30
2006,10,12,16,03,18.30
2006,10,12,16,04,18.30
2006,10,12,16,05,18.40
2006,10,12,16,06,18.40
2006,10,12,16,07,18.40
2006,10,12,16,08,18.40
2006,10,12,16,09,18.40
2006,10,12,16,10,18.50
2006,10,12,16,11,18.50
2006,10,12,16,12,18.50
2006,10,12,16,13,18.50
2006,10,12,16,14,18.60
2006,10,12,16,15,18.60
2006,10,12,16,16,18.60
2006,10,12,16,17,18.60
2006,10,12,16,18,18.60
2006,10,12,16,19,18.60
2006,10,12,16,20,18.70
2006,10,12,16,21,18.70
2006,10,12,16,22,18.80
2006,10,12,16,23,18.80
2006,10,12,16,24,18.90
2006,10,12,16,25,18.90
2006,10,12,16,26,18.90
2006,10,12,16,27,18.90
2006,10,12,16,28,18.90
2006,10,12,16,29,19.00
2006,10,12,16,30,19.10
2006,10,12,16,31,19.10
2006,10,12,16,32,19.10
2006,10,12,16,33,19.10
2006,10,12,16,34,19.20
2006,10,12,16,35,19.20
2006,10,12,16,36,19.30
2006,10,12,16,37,19.30
2006,10,12,16,38,19.30
2006,10,12,16,39,19.20
2006,10,12,16,40,19.10
2006,10,12,16,41,19.10
2006,10,12,16,42,19.10
2006,10,12,16,43,19.00
2006,10,12,16,44,18.90
2006,10,12,16,45,18.90
2006,10,12,16,46,19.00
2006,10,12,16,47,19.00
2006,10,12,16,48,18.90
2006,10,12,16,49,18.90
2006,10,12,16,50,18.90
2006,10,12,16,51,18.90
2006,10,12,16,52,18.90
2006,10,12,16,53,18.90
2006,10,12,16,54,18.90
2006,10,12,16,55,18.90
2006,10,12,16,56,18.90
2006,10,12,16,57,18.90
2006,10,12,16,58,18.90
2006,10,12,16,59,18.90
2006,10,12,17,00,18.90
2006,10,12,17,01,18.80
2006,10,12,17,02,18.80
2006,10,12,17,03,18.70
2006,10,12,17,04,18.60
2006,10,12,17,05,18.60
2006,10,12,17,06,18.50
2006,10,12,17,07,18.40
2006,10,12,17,08,18.40
2006,10,12,17,09,18.40
2006,10,12,17,10,18.30
2006,10,12,17,11,18.30
2006,10,12,17,12,18.40
2006,10,12,17,13,18.50
2006,10,12,17,14,18.50
2006,10,12,17,15,18.50
2006,10,12,17,16,18.50
2006,10,12,17,17,18.50
2006,10,12,17,18,18.60
2006,10,12,17,19,18.60
2006,10,12,17,20,18.60
2006,10,12,17,21,18.60
2006,10,12,17,22,18.70
2006,10,12,17,23,18.70
2006,10,12,17,24,18.60
2006,10,12,17,25,18.60
2006,10,12,17,26,18.60
2006,10,12,17,27,18.50
2006,10,12,17,28,18.50
2006,10,12,17,29,18.50
2006,10,12,17,30,18.40
2006,10,12,17,31,18.40
2006,10,12,17,32,18.40
2006,10,12,17,33,18.40
2006,10,12,17,34,18.30
2006,10,12,17,35,18.30
2006,10,12,17,36,18.20
2006,10,12,17,37,18.20
2006,10,12,17,38,18.10
2006,10,12,17,39,18.10
2006,10,12,17,40,17.90
2006,10,12,17,41,17.90
2006,10,12,17,42,17.90